STARLINK-11737 [DTC] (64066 NORAD) Tracking and Keplerian Element Data

This shows tracking and keplerian element data for the satellite.

Feedback or suggestion? Click here.




ElementValue
Catalog64066
NameSTARLINK-11737 [DTC]
Epoch Orbit3476
Epoch Day353.99309687
Epoch Year2025
RAAN218.6372
Inclination43.0025
Eccentricity0.0003048
Argument of Perigee260.6163
Mean Anonmoly99.436
Mean Motion15.70885258
Decay Rate0.00170797
L11 64066U 25107C 25353.99309687 .00170797 00000+0 13048-2 0 9994
L22 64066 43.0025 218.6372 0003048 260.6163 99.4360 15.70885258 34766



Live tracking and technical data element details for STARLINK-11737 [DTC] (NORAD 64066). STARLINK-11737 [DTC] can be tracked NOW for your location showing map with azimuth and elevation plus other details from your city location.







IsCatalogInMostPopularTable: catalog: 64066, numindb: 2
Update: records affected: 1



GetName: 64066 STARLINK-11737 [DTC]

Hit Count: updated at: Sun, 08 Feb 2026 16:32:17 GMT